CYAM

Sault Ste. Marie International Airport

Airport
ICAO code
CYAM
IATA Code
YAM
Summary
ICAO Region
NAM
ICAO Territory
Location

Sault Ste. Marie, Ontario,

Serving
Sault Ste. Marie
Elevation
630 ft
Coordinates
46° 29' 6" N , 84° 30' 34" W
KCC
Airport BS
Bird Strike
Airport CFIT
Altimeter Temperature Error Correction
Airport GND
Aircraft Ground De/Anti Icing
Metar
CYAM 151105Z 14003KT 5SM R12/3000V4500FT/N BR BCFG MIFG SCT002 SCT010 BKN028 BKN250 17/17 A2978 RMK ST3ST1SC1CI1 SLP085 DENSITY ALT 1300FT

Description

Regional airport located 8 miles west of Sault Ste. Marie, Ontario, Canada.

Climatology

Humid Continental climate (Köppen climate classification Dfb) - Variable weather patterns and a large seasonal temperature variance. Summers are often warm and humid with frequent thunderstorms and winters can be very cold with frequent snowfall and persistent snow cover.

Runways

Designator Length Width Surface Rops
4/22 1829 61 ASP Yes/Yes
12/30 1829 61 ASP Yes/Yes

SKYbrary Partners:

Safety knowledge contributed by: